DW3607 Weather Reports


time (UTC)temp
C
wind
direction
speed
KPH
gust
KPH
rain 1hr
cm
rain 24hr
cm
rain mn
cm
humidity
%
barometer
mb
20260506044705 10 281 0.0 0.0 0.15 2.41 0.10 97 1037.1
20260506043705 10 281 0.0 0.0 0.15 2.39 0.08 97 1037.2
20260506043204 10 281 0.0 0.0 0.18 2.39 0.08 97 1037.2
20260506042705 10 281 0.0 0.0 0.18 2.36 0.05 97 1037.3
20260506042205 10 281 0.0 0.0 0.18 2.36 0.05 97 1037.3
20260506041705 10 281 0.0 0.0 0.18 2.34 0.03 97 1037.2
20260506041204 10 281 0.0 0.0 0.20 2.34 0.03 97 1037.0
20260506040204 10 281 0.0 0.0 0.23 2.31 0.00 97 1037.4
20260506035705 10 281 0.0 0.0 0.25 2.31 2.31 97 1037.5
20260506035204 10 281 0.0 0.0 0.25 2.29 2.29 97 1037.6
20260506034704 10 281 0.0 0.0 0.28 2.29 2.29 97 1037.7
20260506034204 10 281 0.0 0.0 0.28 2.26 2.26 97 1037.6
20260506033705 10 281 0.0 0.0 0.28 2.24 2.24 97 1037.4
20260506033204 10 281 0.0 0.0 0.28 2.21 2.21 97 1037.2
20260506032704 10 281 0.0 0.0 0.30 2.21 2.21 97 1037.1
20260506031705 10 281 0.0 0.0 0.33 2.16 2.16 97 1036.8
20260506031205 10 281 0.0 0.0 0.36 2.16 2.16 97 1036.7
20260506030704 10 281 0.0 0.0 0.38 2.13 2.13 97 1036.7
20260506030205 10 281 0.0 0.0 0.38 2.11 2.11 97 1036.9
20260506025704 10 281 0.0 0.0 0.38 2.06 2.06 97 1037.0
20260506025205 10 281 0.0 0.0 0.41 2.03 2.03 97 1037.0
20260506024704 10 281 0.0 0.0 0.38 2.01 2.01 97 1037.1
20260506024205 10 281 0.0 0.0 0.38 1.98 1.98 97 1037.2
20260506023704 10 281 0.0 0.0 0.36 1.96 1.96 97 1037.2
20260506023204 10 281 0.0 0.0 0.36 1.93 1.93 97 1037.1
20260506022704 10 281 0.0 0.0 0.33 1.91 1.91 97 1037.1
20260506022205 10 281 0.0 0.0 0.30 1.88 1.88 97 1037.1
20260506021704 10 281 0.0 0.0 0.25 1.83 1.83 98 1037.1
20260506021205 10 281 0.0 0.0 0.23 1.80 1.80 98 1037.2
20260506020704 10 281 0.0 0.0 0.20 1.75 1.75 98 1037.2
20260506015704 10 281 0.0 0.0 0.15 1.68 1.68 98 1036.9
20260506015205 10 281 0.0 0.0 0.10 1.63 1.63 98 1036.7
20260506014704 10 281 0.0 0.0 0.10 1.63 1.63 98 1036.7
20260506014204 10 281 0.0 0.0 0.08 1.60 1.60 98 1036.7
20260506013205 10 281 0.0 0.0 0.13 1.57 1.57 98 1036.6
20260506012704 10 281 0.0 0.0 0.15 1.57 1.57 98 1036.5
20260506012205 10 281 0.0 0.0 0.18 1.57 1.57 98 1036.6
20260506011704 10 281 0.0 0.0 0.20 1.57 1.57 98 1036.5
20260506011205 10 281 0.0 0.0 0.23 1.57 1.57 98 1036.6
20260506010704 10 281 0.0 0.0 0.25 1.55 1.55 98 1036.5
20260506010205 10 281 0.0 0.0 0.33 1.55 1.55 98 1036.4
20260506005704 10 281 0.0 0.0 0.43 1.52 1.52 98 1036.4
20260506005205 10 281 0.0 0.0 0.56 1.52 1.52 98 1036.3
20260506004704 10 281 0.0 0.0 0.64 1.52 1.52 98 1036.4
20260506004205 10 281 0.0 0.0 0.66 1.52 1.52 98 1036.4
20260506003704 10 281 0.0 0.0 0.61 1.47 1.47 98 1036.6
20260506002704 10 281 0.0 0.0 0.58 1.42 1.42 98 1036.5
20260506002205 10 281 0.0 0.0 0.58 1.40 1.40 98 1036.9
20260506001704 10 281 0.0 0.0 0.56 1.37 1.37 99 1037.0
20260506001204 10 281 0.0 0.0 0.53 1.35 1.35 99 1036.9
20260506000205 10 281 0.0 0.0 0.43 1.22 1.22 99 1036.9
20260505235704 10 281 0.0 0.0 0.30 1.09 1.09 99 1037.2
20260505235204 10 304 0.0 0.0 0.18 0.97 0.97 99 1036.7
20260505234704 10 304 0.0 0.0 0.13 0.89 0.89 99 1036.6
20260505233704 10 304 0.0 0.0 0.13 0.86 0.86 99 1036.4
20260505232704 10 304 0.0 0.0 0.10 0.84 0.84 99 1036.6
20260505232204 10 304 0.0 0.0 0.10 0.81 0.81 99 1036.5
20260505231704 10 304 0.0 0.0 0.10 0.81 0.81 99 1036.6
20260505231204 10 304 0.0 0.0 0.10 0.81 0.81 99 1036.3
20260505230705 10 304 0.0 0.0 0.10 0.81 0.81 99 1036.6
20260505230204 10 304 0.0 0.0 0.20 0.79 0.79 99 1036.7
20260505225205 11 297 0.0 0.0 0.46 0.79 0.79 100 1036.5
20260505224205 11 297 0.0 0.0 0.48 0.74 0.74 100 1036.8
20260505223704 11 297 0.0 0.0 0.48 0.74 0.74 100 1036.4
20260505222704 11 297 0.0 0.0 0.48 0.74 0.74 100 1036.4
20260505222205 11 297 0.0 0.0 0.48 0.71 0.71 100 1036.4
20260505220704 12 300 0.0 0.0 0.66 0.71 0.71 100 1036.3
20260505220204 12 312 0.0 0.0 0.56 0.58 0.58 100 1036.1
20260505215705 12 295 0.0 0.0 0.46 0.46 0.46 100 1036.7
20260505215204 13 301 0.0 0.0 0.33 0.33 0.33 100 1036.2
20260505214704 13 294 0.0 0.0 0.25 0.25 0.25 100 1036.0
20260505214204 13 279 0.0 0.0 0.25 0.25 0.25 100 1035.7
20260505213704 13 279 0.0 0.0 0.25 0.25 0.25 100 1035.7
20260505213205 13 279 0.0 0.0 0.25 0.25 0.25 100 1035.7
20260505212704 14 279 0.0 0.0 0.25 0.25 0.25 100 1035.6
20260505212205 14 279 0.0 0.0 0.23 0.23 0.23 100 1035.5
20260505211705 14 279 0.0 0.0 0.15 0.15 0.15 100 1035.7
20260505211204 14 279 0.0 0.0 0.13 0.13 0.13 100 1035.7
20260505210704 14 279 0.0 0.0 0.05 0.05 0.05 100 1035.7
20260505210204 14 279 0.0 0.0 0.03 0.03 0.03 100 1035.6
20260505205705 15 275 0.0 0.0 0.00 0.00 0.00 100 1035.6
20260505205204 15 275 0.0 0.0 0.00 0.00 0.00 100 1035.5
20260505204704 15 275 0.0 0.0 0.00 0.00 0.00 100 1035.5
20260505204204 15 275 0.0 0.0 0.00 0.00 0.00 100 1035.5
20260505203705 15 275 0.0 0.0 0.00 0.00 0.00 100 1035.5
20260505203204 15 275 0.0 0.0 0.00 0.00 0.00 100 1035.4
20260505202705 15 275 0.0 0.0 0.00 0.00 0.00 100 1035.5
20260505202204 16 275 0.0 0.0 0.00 0.00 0.00 100 1035.4
20260505201704 16 275 0.0 0.0 0.00 0.00 0.00 100 1035.4
20260505201204 16 275 0.0 0.0 0.00 0.00 0.00 100 1035.4
20260505200704 16 275 0.0 0.0 0.00 0.00 0.00 100 1035.3
20260505200205 16 275 0.0 0.0 0.00 0.00 0.00 100 1035.4
20260505195704 16 275 0.0 0.0 0.00 0.00 0.00 100 1035.6
20260505195204 16 275 0.0 0.0 0.00 0.00 0.00 100 1035.5
20260505194705 16 275 0.0 0.0 0.00 0.00 0.00 100 1035.5
20260505193705 17 275 0.0 0.0 0.00 0.00 0.00 100 1035.5
20260505193204 17 276 0.0 0.0 0.00 0.00 0.00 100 1035.6
20260505192204 17 262 0.0 0.0 0.00 0.00 0.00 100 1035.4
20260505191704 18 265 0.0 0.0 0.00 0.00 0.00 100 1035.3
20260505191204 18 268 0.0 0.0 0.00 0.00 0.00 100 1035.4
20260505190705 18 273 0.0 0.0 0.00 0.00 0.00 100 1035.4
20260505190204 18 273 0.0 0.0 0.00 0.00 0.00 100 1035.3
20260505185704 18 271 0.0 0.0 0.00 0.00 0.00 100 1035.3
20260505185205 18 271 0.0 0.0 0.00 0.00 0.00 100 1035.4
20260505184704 18 271 0.0 0.0 0.00 0.00 0.00 100 1035.4
20260505184205 18 284 0.0 0.0 0.00 0.00 0.00 100 1035.4
20260505183704 18 270 0.0 0.0 0.00 0.00 0.00 100 1035.5
20260505183205 18 276 0.0 0.0 0.00 0.00 0.00 100 1035.5
20260505182204 18 283 0.0 0.0 0.00 0.00 0.00 100 1035.4
20260505181704 18 276 0.0 0.0 0.00 0.00 0.00 100 1035.5
20260505181204 18 277 0.0 0.0 0.00 0.00 0.00 100 1035.4
20260505180705 18 281 0.0 0.0 0.00 0.00 0.00 100 1035.3
20260505180204 18 300 0.0 0.0 0.00 0.00 0.00 100 1035.4
20260505175704 18 284 0.0 0.0 0.00 0.00 0.00 100 1035.3
20260505173704 18 267 0.0 0.0 0.00 0.00 0.00 100 1035.0
20260505173204 18 262 0.0 0.0 0.00 0.00 0.00 99 1035.0
20260505172705 18 293 0.0 0.0 0.00 0.00 0.00 99 1035.0
20260505172204 19 290 0.0 0.0 0.00 0.00 0.00 98 1035.0
20260505171704 20 285 0.0 0.0 0.00 0.00 0.00 96 1034.8
20260505171204 20 272 0.0 0.0 0.00 0.00 0.00 95 1034.6
20260505170705 21 258 0.0 0.0 0.00 0.00 0.00 94 1034.6
20260505170204 21 246 0.0 0.0 0.00 0.00 0.00 94 1034.3
20260505165705 21 243 0.0 0.0 0.00 0.00 0.00 93 1034.2
20260505165204 21 240 0.0 0.0 0.00 0.00 0.00 93 1034.2
20260505164705 22 236 0.0 0.0 0.00 0.00 0.00 92 1034.1
20260505164204 22 207 0.0 0.0 0.00 0.00 0.00 92 1034.1
20260505163704 22 202 0.0 0.0 0.00 0.00 0.00 92 1034.2
20260505163204 22 205 0.0 0.0 0.00 0.00 0.00 92 1034.2
20260505162705 22 208 0.0 0.0 0.00 0.00 0.00 91 1034.2
20260505162204 22 267 0.0 0.0 0.00 0.00 0.00 92 1034.1
20260505161704 22 254 0.0 0.0 0.00 0.00 0.00 93 1034.3
20260505161204 21 214 0.0 0.0 0.00 0.00 0.00 92 1034.4
20260505160705 21 216 0.0 0.0 0.00 0.00 0.00 93 1034.3
20260505153204 21 222 0.0 0.0 0.00 0.00 0.00 95 1034.1
20260505152704 20 217 0.0 0.0 0.00 0.00 0.00 96 1034.4
20260505152204 20 246 0.0 0.0 0.00 0.00 0.00 96 1034.4
20260505151705 20 205 0.0 0.0 0.00 0.00 0.00 98 1034.5
20260505151204 20 235 0.0 0.0 0.00 0.00 0.00 98 1034.5
20260505150705 20 235 0.0 0.0 0.00 0.00 0.00 97 1034.4
20260505150204 20 199 0.0 0.0 0.00 0.00 0.00 97 1034.2
20260505140204 18 206 0.0 0.0 0.00 0.00 0.00 100 1034.0
20260505124705 17 185 0.0 0.0 0.00 0.00 0.00 100 1033.5
20260505123705 17 201 0.0 0.0 0.00 0.00 0.00 100 1033.3
20260505122704 17 206 0.0 0.0 0.00 0.00 0.00 100 1033.1
20260505121704 17 208 0.0 0.0 0.00 0.00 0.00 100 1033.2
20260505121204 18 197 0.0 0.0 0.00 0.00 0.00 100 1033.3
20260505120704 18 217 0.0 0.0 0.00 0.00 0.00 100 1033.4
20260505120204 18 215 0.0 0.0 0.00 0.00 0.00 100 1033.2
20260505115205 18 198 0.0 0.0 0.00 0.00 0.00 100 1033.1
20260505114704 18 212 0.0 0.0 0.00 0.00 0.00 100 1033.1
20260505113704 18 204 0.0 0.0 0.00 0.00 0.00 100 1033.0
20260505113204 18 222 0.0 0.0 0.00 0.00 0.00 100 1032.9
20260505112704 18 200 0.0 0.0 0.00 0.00 0.00 100 1032.8
20260505112204 18 198 0.0 0.0 0.00 0.00 0.00 100 1032.7
20260505111704 18 203 0.0 0.0 0.00 0.00 0.00 100 1032.7
20260505110704 18 212 0.0 0.0 0.00 0.00 0.00 100 1032.6
20260505110204 18 214 0.0 0.0 0.00 0.00 0.00 100 1032.5
20260505102204 18 214 0.0 0.0 0.00 0.00 0.00 100 1031.9
20260505101704 18 215 0.0 0.0 0.00 0.00 0.00 100 1031.7
20260505100704 18 205 0.0 0.0 0.00 0.00 0.00 100 1031.7
20260505100205 18 207 0.0 0.0 0.00 0.00 0.00 100 1031.7
20260505095704 18 203 0.0 0.0 0.00 0.00 0.00 100 1031.7
20260505094204 17 190 0.0 0.0 0.00 0.00 0.00 100 1031.4
20260505093704 17 188 0.0 0.0 0.00 0.00 0.00 100 1031.4
20260505093204 17 188 0.0 0.0 0.00 0.00 0.00 100 1031.3
20260505092704 17 188 0.0 0.0 0.00 0.00 0.00 100 1031.2
20260505092204 17 188 0.0 0.0 0.00 0.00 0.00 100 1031.3
20260505091704 17 188 0.0 0.0 0.00 0.00 0.00 100 1031.4
20260505091204 17 186 0.0 0.0 0.00 0.00 0.00 100 1031.4
20260505090704 18 186 0.0 0.0 0.00 0.00 0.00 100 1031.4
20260505090204 18 196 0.0 0.0 0.00 0.00 0.00 99 1031.4
20260505085704 18 202 0.0 0.0 0.00 0.00 0.00 100 1031.5
20260505084704 18 198 0.0 0.0 0.00 0.00 0.00 100 1031.6
20260505084205 17 192 0.0 0.0 0.00 0.00 0.00 100 1031.6
20260505083704 18 190 0.0 0.0 0.00 0.00 0.00 100 1031.4
20260505083205 17 183 0.0 0.0 0.00 0.00 0.00 100 1031.4
20260505082704 17 191 0.0 0.0 0.00 0.00 0.00 100 1031.2
20260505082205 17 191 0.0 0.0 0.00 0.00 0.00 100 1031.2
20260505081704 17 191 0.0 0.0 0.00 0.00 0.00 100 1031.2
20260505081204 18 191 0.0 0.0 0.00 0.00 0.00 100 1031.1
20260505080704 18 191 0.0 0.0 0.00 0.00 0.00 100 1031.2
20260505080204 18 191 0.0 0.0 0.00 0.00 0.00 100 1031.1
20260505075705 18 191 0.0 0.0 0.00 0.00 0.00 100 1031.1
20260505075204 18 190 0.0 0.0 0.00 0.00 0.00 100 1031.1
20260505074704 18 188 0.0 0.0 0.00 0.00 0.00 100 1031.1
20260505074204 18 195 0.0 0.0 0.00 0.00 0.00 100 1031.1
20260505073704 18 196 0.0 0.0 0.00 0.00 0.00 100 1031.1
20260505073204 18 200 0.0 0.0 0.00 0.00 0.00 100 1030.9
20260505072704 18 201 0.0 0.0 0.00 0.00 0.00 100 1031.0
20260505071705 17 202 0.0 0.0 0.00 0.00 0.00 100 1031.0
20260505071204 17 202 0.0 0.0 0.00 0.00 0.00 100 1031.0
20260505070704 17 202 0.0 0.0 0.00 0.00 0.00 100 1031.1
20260505070204 17 202 0.0 0.0 0.00 0.00 0.00 100 1031.1
20260505065704 17 202 0.0 0.0 0.00 0.00 0.00 100 1031.1
20260505065204 17 202 0.0 0.0 0.00 0.00 0.00 100 1031.2
20260505064705 17 201 0.0 0.0 0.00 0.00 0.00 100 1031.2
20260505064204 17 201 0.0 0.0 0.00 0.00 0.00 100 1031.2
20260505063704 17 201 0.0 0.0 0.00 0.00 0.00 100 1031.3
20260505062704 17 203 0.0 0.0 0.00 0.00 0.00 100 1031.4
20260505062204 17 205 0.0 0.0 0.00 0.00 0.00 100 1031.5
20260505061204 17 205 0.0 0.0 0.00 0.00 0.00 100 1031.7
20260505060705 17 205 0.0 0.0 0.00 0.00 0.00 100 1031.8
20260505060204 16 205 0.0 0.0 0.00 0.00 0.00 100 1031.9
20260505055704 17 205 0.0 0.0 0.00 0.00 0.00 100 1031.9
20260505055204 17 205 0.0 0.0 0.00 0.00 0.00 100 1032.0
20260505054704 17 205 0.0 0.0 0.00 0.00 0.00 100 1032.2
20260505054204 17 205 0.0 0.0 0.00 0.00 0.00 100 1032.3
20260505053705 17 205 0.0 0.0 0.00 0.00 0.00 100 1032.3
20260505053204 17 205 0.0 0.0 0.00 0.00 0.00 100 1032.3
20260505052704 17 205 0.0 0.0 0.00 0.00 0.00 100 1032.3
20260505052204 17 205 0.0 0.0 0.00 0.00 0.00 100 1032.4
20260505051705 17 207 0.0 0.0 0.00 0.00 0.00 100 1032.6
20260505051204 17 211 0.0 0.0 0.00 0.00 0.00 100 1032.8
20260505050704 18 211 0.0 0.0 0.00 0.00 0.00 100 1032.8
20260505050204 18 187 0.0 0.0 0.00 0.00 0.00 99 1032.6